User: anonymous   Login
Location: Lafig�re
(44.4503°N, 4.0357°E)
Time: 00:58:13
(UTC+00:00)
Language:

TSX-5 - Orbit

View from above orbital plane
View from above orbital plane
View from above satellite
View from above satellite

Ground track
Ground track

The orbit data is extracted from the following two-line orbital elements,

1 26374U 00030A   20336.54626908 +.00002857 +00000-0 +23005-3 0  9994
2 26374 068.9285 122.0997 0642503 275.7744 077.0502 14.08398748033782
Epoch (UTC): 01 December 2020 13:06:37
Eccentricity: 0.0642503
inclination: 68.9285°
perigee height: 399 km
apogee height: 1330 km
right ascension of ascending node: 122.0997°
argument of perigee: 275.7744°
revolutions per day: 14.08398748
mean anomaly at epoch: 77.0502°
orbit number at epoch: 3378

The dashed part of the orbit path shows where the satellite is in the earth's shadow,  

DLR